EW5015 Weather Reports


Display with metric or nautical units.
time (UTC)temp
F
wind
direction
speed
MPH
gust
MPH
rain 1hr
in
rain 24hr
in
rain mn
in
humidity
%
barometer
mb
20260510204224 69 37 5.0 10.0 0.00 0.00 0.00 42 1020.2
20260510203720 69 25 4.0 7.0 0.00 0.00 0.00 41 1020.3
20260510203218 70 49 3.0 5.0 0.00 0.00 0.00 40 1020.3
20260510202718 69 39 7.0 12.0 0.00 0.00 0.00 41 1020.1
20260510202213 69 290 0.0 5.0 0.00 0.00 0.00 40 1020.1
20260510201711 69 34 3.0 7.0 0.00 0.00 0.00 40 1020.2
20260510201207 70 38 4.0 5.0 0.00 0.00 0.00 45 1020.2
20260510200703 69 20 5.0 8.0 0.00 0.00 0.00 43 1020.2
20260510200201 69 23 0.0 7.0 0.00 0.00 0.00 40 1020.3
20260510195658 68 79 2.0 6.0 0.00 0.00 0.00 46 1020.2
20260510195155 69 1 2.0 5.0 0.00 0.00 0.00 43 1020.3
20260510194654 69 48 3.0 5.0 0.00 0.00 0.00 43 1020.2
20260510194150 68 77 4.0 6.0 0.00 0.00 0.00 45 1020.2
20260510193646 68 358 3.0 7.0 0.00 0.00 0.00 43 1020.4
20260510193141 68 54 2.0 11.0 0.00 0.00 0.00 42 1020.3
20260510192637 68 356 1.0 6.0 0.00 0.00 0.00 42 1020.6
20260510192132 68 48 3.0 8.0 0.00 0.00 0.00 46 1020.4
20260510191629 67 7 2.0 5.0 0.00 0.00 0.00 44 1020.4
20260510191125 66 21 3.0 8.0 0.00 0.00 0.00 44 1020.4
20260510190618 66 53 7.0 7.0 0.00 0.00 0.00 42 1020.3
20260510190115 66 42 5.0 7.0 0.00 0.00 0.00 42 1020.3
20260510185611 66 43 3.0 4.0 0.00 0.00 0.00 40 1020.2
20260510185109 66 46 7.0 8.0 0.00 0.00 0.00 41 1020.3
20260510184606 66 18 6.0 8.0 0.00 0.00 0.00 40 1020.3
20260510184102 68 36 7.0 12.0 0.00 0.00 0.00 39 1020.2
20260510183556 68 97 1.0 6.0 0.00 0.00 0.00 44 1020.1
20260510183052 67 26 7.0 10.0 0.00 0.00 0.00 43 1020.2
20260510182549 67 33 5.0 7.0 0.00 0.00 0.00 43 1020.0
20260510182044 68 39 8.0 11.0 0.00 0.00 0.00 43 1020.1
20260510181542 67 130 0.0 10.0 0.00 0.00 0.00 44 1020.0
20260510181038 66 323 3.0 8.0 0.00 0.00 0.00 42 1019.8
20260510180535 66 57 3.0 11.0 0.00 0.00 0.00 41 1020.0
20260510180033 66 45 9.0 9.0 0.00 0.00 0.00 48 1020.0
20260510175527 65 51 6.0 7.0 0.00 0.00 0.00 48 1020.0
20260510175024 64 35 8.0 10.0 0.00 0.00 0.00 46 1020.2
20260510174522 64 37 10.0 11.0 0.00 0.00 0.00 46 1020.4
20260510174019 64 22 6.0 9.0 0.00 0.00 0.00 45 1020.2
20260510173514 64 16 3.0 8.0 0.00 0.00 0.00 45 1020.2
20260510173011 64 40 3.0 11.0 0.00 0.00 0.00 45 1020.3
20260510172507 64 54 9.0 12.0 0.00 0.00 0.00 43 1020.5
20260510172004 64 48 6.0 10.0 0.00 0.00 0.00 46 1020.3
20260510171500 66 55 3.0 5.0 0.00 0.00 0.00 45 1020.5
20260510170957 65 31 8.0 10.0 0.00 0.00 0.00 45 1020.5
20260510170454 65 50 6.0 9.0 0.00 0.00 0.00 55 1020.6
20260510165949 64 301 4.0 7.0 0.00 0.00 0.00 56 1020.6
20260510165446 63 52 6.0 6.0 0.00 0.00 0.00 58 1020.5
20260510164943 63 33 4.0 6.0 0.00 0.00 0.00 57 1020.5
20260510164440 62 48 7.0 7.0 0.00 0.00 0.00 57 1020.5
20260510163934 62 51 6.0 7.0 0.00 0.00 0.00 58 1020.6
20260510163431 62 49 5.0 8.0 0.00 0.00 0.00 57 1020.7
20260510162925 62 6 3.0 9.0 0.00 0.00 0.00 57 1020.4
20260510162423 63 16 6.0 6.0 0.00 0.00 0.00 55 1020.5
20260510161919 63 26 1.0 7.0 0.00 0.00 0.00 57 1020.9
20260510161415 62 41 3.0 6.0 0.00 0.00 0.00 60 1020.7
20260510160912 64 11 4.0 6.0 0.00 0.00 0.00 56 1020.7
20260510160409 63 16 8.0 11.0 0.00 0.00 0.00 55 1020.7
20260510155908 63 25 3.0 7.0 0.00 0.00 0.00 58 1020.9
20260510155405 62 3 4.0 9.0 0.00 0.00 0.00 60 1020.6
20260510154901 61 70 2.0 5.0 0.00 0.00 0.00 63 1020.9
20260510154358 61 43 2.0 4.0 0.00 0.00 0.00 61 1020.9
20260510153851 61 4 2.0 6.0 0.00 0.00 0.00 63 1020.6
20260510153347 61 21 3.0 6.0 0.00 0.00 0.00 60 1020.5
20260510152844 61 357 3.0 5.0 0.00 0.00 0.00 60 1020.6
20260510152342 62 336 1.0 6.0 0.00 0.00 0.00 59 1020.2
20260510151838 61 348 5.0 7.0 0.00 0.00 0.00 60 1020.2
20260510151336 61 27 2.0 6.0 0.00 0.00 0.00 60 1020.0
20260510150831 61 37 1.0 7.0 0.00 0.00 0.00 60 1019.9
20260510150327 60 17 5.0 10.0 0.00 0.00 0.00 61 1020.1
20260510145824 60 52 6.0 12.0 0.00 0.00 0.00 61 1020.0
20260510145320 60 55 4.0 10.0 0.00 0.00 0.00 61 1020.0
20260510144817 61 56 4.0 6.0 0.00 0.00 0.00 61 1020.1
20260510144314 62 46 7.0 8.0 0.00 0.00 0.00 58 1020.0
20260510143813 62 10 3.0 6.0 0.00 0.00 0.00 60 1019.8
20260510143309 62 33 4.0 6.0 0.00 0.00 0.00 59 1019.5
20260510142807 61 28 5.0 7.0 0.00 0.00 0.00 60 1019.4
20260510142306 62 52 2.0 6.0 0.00 0.00 0.00 60 1019.6
20260510141800 61 46 3.0 9.0 0.00 0.00 0.00 59 1019.3
20260510141258 61 61 7.0 9.0 0.00 0.00 0.00 60 1019.3
20260510140755 61 25 5.0 6.0 0.00 0.00 0.00 63 1019.2
20260510140250 60 44 6.0 9.0 0.00 0.00 0.00 62 1019.1
20260510135744 60 54 7.0 8.0 0.00 0.00 0.00 62 1019.2
20260510135240 59 43 6.0 7.0 0.00 0.00 0.00 65 1019.3
20260510134738 59 313 0.0 6.0 0.00 0.00 0.00 67 1019.1
20260510134235 58 47 4.0 7.0 0.00 0.00 0.00 64 1019.3
20260510133730 59 68 4.0 7.0 0.00 0.00 0.00 68 1019.2
20260510133226 58 34 5.0 10.0 0.00 0.00 0.00 67 1019.2
20260510132722 58 27 1.0 7.0 0.00 0.00 0.00 69 1019.3
20260510132220 58 52 6.0 6.0 0.00 0.00 0.00 69 1019.2
20260510131717 58 57 1.0 5.0 0.00 0.00 0.00 72 1019.1
20260510131215 57 16 3.0 6.0 0.00 0.00 0.00 71 1019.1
20260510130711 57 30 7.0 7.0 0.00 0.00 0.00 71 1019.0
20260510130208 57 52 3.0 7.0 0.00 0.00 0.00 73 1019.1
20260510125704 57 36 4.0 5.0 0.00 0.00 0.00 74 1018.8
20260510125201 57 9 3.0 6.0 0.00 0.00 0.00 77 1018.8
20260510124658 57 41 4.0 4.0 0.00 0.00 0.00 80 1018.7
20260510124155 56 92 2.0 4.0 0.00 0.00 0.00 82 1018.6
20260510123650 56 21 2.0 3.0 0.00 0.00 0.00 84 1018.3
20260510123146 56 64 3.0 3.0 0.00 0.00 0.00 85 1018.4
20260510122643 55 342 2.0 5.0 0.00 0.00 0.00 84 1018.1
20260510122139 55 9 3.0 3.0 0.00 0.00 0.00 86 1018.1
20260510121635 55 10 4.0 4.0 0.00 0.00 0.00 86 1018.2
20260510121132 55 32 4.0 5.0 0.00 0.00 0.00 86 1018.3
20260510120630 55 31 3.0 4.0 0.00 0.00 0.00 87 1018.1
20260510120126 55 2 4.0 5.0 0.00 0.00 0.00 87 1018.1
20260510115622 54 35 2.0 3.0 0.00 0.00 0.00 88 1018.1
20260510115120 54 30 2.0 2.0 0.00 0.00 0.00 90 1017.8
20260510114615 54 12 1.0 2.0 0.00 0.00 0.00 90 1017.7
20260510114112 54 23 1.0 4.0 0.00 0.00 0.00 92 1017.4
20260510113608 54 10 2.0 2.0 0.00 0.00 0.00 93 1017.6
20260510113105 54 290 3.0 3.0 0.00 0.00 0.00 95 1017.3
20260510112602 54 17 3.0 3.0 0.00 0.00 0.00 95 1017.0
20260510112058 54 32 2.0 4.0 0.00 0.00 0.00 96 1016.9
20260510111554 54 41 2.0 2.0 0.00 0.00 0.00 97 1017.0
20260510111050 54 345 1.0 3.0 0.00 0.00 0.00 97 1017.0
20260510110546 54 17 1.0 3.0 0.00 0.00 0.00 98 1016.7
20260510110043 54 56 2.0 3.0 0.00 0.00 0.00 98 1016.7
20260510105538 54 9 1.0 3.0 0.00 0.00 0.00 99 1016.3
20260510105033 54 80 2.0 3.0 0.00 0.00 0.00 99 1016.3
20260510104530 54 257 0.0 4.0 0.00 0.00 0.00 99 1016.3
20260510104026 54 44 0.0 3.0 0.00 0.00 0.00 99 1016.4
20260510103524 54 287 2.0 3.0 0.00 0.00 0.00 99 1016.3
20260510103020 54 80 1.0 2.0 0.00 0.00 0.00 99 1015.9
20260510102516 54 22 0.0 2.0 0.00 0.00 0.00 99 1016.1
20260510102013 54 329 0.0 2.0 0.00 0.00 0.00 99 1015.9
20260510101510 55 35 2.0 3.0 0.00 0.00 0.00 99 1015.6
20260510101009 55 41 2.0 4.0 0.00 0.00 0.00 99 1015.6
20260510100504 55 22 2.0 3.0 0.00 0.00 0.00 99 1015.6
20260510100001 55 50 0.0 1.0 0.00 0.00 0.00 99 1015.6
20260510095456 55 101 1.0 1.0 0.00 0.00 0.00 99 1015.6
20260510094956 55 275 0.0 1.0 0.00 0.00 0.00 99 1015.7
20260510094451 55 36 1.0 2.0 0.00 0.00 0.00 99 1015.7
20260510093947 55 116 0.0 0.0 0.00 0.00 0.00 99 1015.5
20260510093442 56 113 0.0 1.0 0.00 0.00 0.00 99 1015.3
20260510092939 56 218 0.0 2.0 0.00 0.00 0.00 99 1015.3
20260510092437 56 129 0.0 0.0 0.00 0.00 0.00 99 1015.3
20260510091936 56 249 0.0 2.0 0.00 0.00 0.00 99 1015.3
20260510091433 56 214 1.0 2.0 0.00 0.00 0.00 99 1015.4
20260510090930 56 202 0.0 2.0 0.00 0.00 0.00 99 1015.1
20260510090427 56 232 0.0 2.0 0.00 0.00 0.00 99 1015.2
20260510085922 56 226 1.0 2.0 0.00 0.00 0.00 99 1014.8
20260510085418 56 249 0.0 2.0 0.00 0.00 0.00 99 1014.8
20260510084913 57 0 0.0 1.0 0.00 0.00 0.00 99 1014.6
20260510084411 57 235 0.0 0.0 0.00 0.00 0.00 99 1014.4
20260510083907 57 248 0.0 0.0 0.00 0.00 0.00 99 1014.5
20260510083404 57 207 0.0 2.0 0.00 0.00 0.00 99 1014.5
20260510082859 57 336 0.0 2.0 0.00 0.00 0.00 99 1014.4
20260510082357 57 54 1.0 1.0 0.00 0.00 0.00 99 1014.3
20260510081855 57 321 0.0 1.0 0.00 0.00 0.00 99 1014.3
20260510081352 57 322 0.0 1.0 0.00 0.00 0.00 99 1014.2
20260510080849 57 49 0.0 1.0 0.00 0.00 0.00 99 1013.9
20260510080342 57 29 0.0 0.0 0.00 0.00 0.00 99 1013.9
20260510075840 57 44 0.0 0.0 0.00 0.00 0.00 99 1014.0
20260510075337 58 218 0.0 0.0 0.00 0.00 0.00 99 1013.7
20260510074828 58 50 0.0 1.0 0.00 0.00 0.00 99 1013.4
20260510074325 58 309 0.0 2.0 0.00 0.00 0.00 99 1013.6
20260510073821 58 326 1.0 2.0 0.00 0.00 0.00 99 1013.5
20260510073318 58 50 0.0 1.0 0.00 0.00 0.00 99 1013.7
20260510072814 58 305 2.0 3.0 0.00 0.00 0.00 99 1013.6
20260510072310 59 70 2.0 3.0 0.00 0.00 0.00 99 1013.5
20260510071807 59 31 3.0 3.0 0.00 0.00 0.00 99 1013.3
20260510071303 59 39 0.0 3.0 0.00 0.00 0.00 99 1013.4
20260510070757 59 13 2.0 3.0 0.00 0.00 0.00 99 1013.1
20260510070253 59 32 0.0 3.0 0.00 0.00 0.00 99 1013.2
20260510065752 59 19 0.0 2.0 0.00 0.00 0.00 99 1013.4
20260510065250 59 23 2.0 3.0 0.00 0.00 0.00 99 1013.5
20260510064746 59 60 0.0 1.0 0.00 0.00 0.00 99 1013.6
20260510064244 59 39 2.0 2.0 0.00 0.00 0.00 99 1013.6
20260510063740 59 50 0.0 2.0 0.00 0.00 0.00 99 1013.4
20260510063236 59 43 2.0 3.0 0.00 0.00 0.00 99 1013.3
20260510062733 59 50 2.0 3.0 0.00 0.00 0.00 99 1013.3
20260510062229 59 36 3.0 4.0 0.00 0.00 0.00 99 1013.3
20260510061724 59 37 4.0 5.0 0.00 0.00 0.00 99 1013.3
20260510061222 59 15 4.0 6.0 0.00 0.00 0.00 99 1013.3
20260510060718 59 61 2.0 4.0 0.00 0.00 0.00 99 1013.5
20260510060214 59 301 1.0 5.0 0.00 0.00 0.00 99 1013.6
20260510055711 59 1 3.0 5.0 0.00 0.00 0.00 99 1013.3
20260510055210 59 34 5.0 8.0 0.00 0.00 0.00 99 1013.1
20260510054704 59 29 4.0 5.0 0.00 0.00 0.00 99 1013.0
20260510054200 60 28 3.0 7.0 0.00 0.00 0.00 99 1012.8
20260510053700 60 46 5.0 10.0 0.00 0.00 0.00 99 1012.8
20260510053157 60 45 9.0 10.0 0.00 0.00 0.00 99 1013.0
20260510052652 60 46 6.0 7.0 0.00 0.00 0.00 99 1012.8
20260510052149 60 50 5.0 9.0 0.00 0.00 0.00 99 1012.8
20260510051644 60 54 3.0 6.0 0.00 0.00 0.00 99 1012.7
20260510051141 60 346 2.0 7.0 0.00 0.00 0.00 99 1013.1
20260510050639 61 339 3.0 8.0 0.00 0.00 0.00 99 1012.7
20260510050136 61 3 7.0 10.0 0.02 0.00 0.00 99 1012.3
20260510045632 60 72 2.0 3.0 0.07 0.19 0.19 98 1011.7
20260510045129 60 146 1.0 6.0 0.05 0.18 0.18 99 1011.8
20260510044625 60 115 1.0 3.0 0.05 0.17 0.17 99 1012.1
20260510044123 60 175 2.0 4.0 0.05 0.17 0.17 99 1012.2
20260510043618 60 141 1.0 2.0 0.05 0.17 0.17 99 1012.0
20260510043115 60 108 1.0 2.0 0.09 0.16 0.16 99 1012.5
20260510042613 60 81 2.0 3.0 0.09 0.15 0.15 99 1012.3
20260510042108 60 68 1.0 3.0 0.09 0.14 0.14 99 1013.1
20260510041606 60 7 6.0 6.0 0.09 0.14 0.14 98 1013.2
20260510041103 60 44 2.0 6.0 0.05 0.13 0.13 98 1013.0
20260510040600 60 49 7.0 11.0 0.02 0.12 0.12 98 1012.6
20260510040056 60 39 6.0 11.0 0.02 0.12 0.12 98 1012.5
20260510035552 60 47 10.0 15.0 0.05 0.12 0.12 98 1012.4
20260510035052 60 72 5.0 13.0 0.05 0.11 0.11 98 1013.0
20260510034550 61 37 7.0 8.0 0.02 0.11 0.11 97 1013.2
20260510034047 61 65 4.0 8.0 0.05 0.11 0.11 97 1013.1
20260510033543 61 27 4.0 10.0 0.07 0.11 0.11 96 1013.2
20260510033041 61 8 9.0 10.0 0.05 0.10 0.10 95 1013.2
20260510032537 62 33 7.0 17.0 0.14 0.09 0.09 94 1013.1
20260510032033 62 336 9.0 15.0 0.35 0.08 0.08 94 1013.3
20260510031528 62 313 4.0 13.0 0.38 0.07 0.07 92 1013.2
20260510031024 64 302 6.0 16.0 0.12 0.02 0.02 88 1013.0
20260510030519 66 306 5.0 22.0 0.00 0.00 0.00 81 1012.4
20260510030017 72 262 4.0 6.0 0.00 0.00 0.00 61 1012.0
20260510025514 72 72 1.0 2.0 0.00 0.00 0.00 56 1010.7
20260510025012 72 129 1.0 2.0 0.00 0.00 0.00 55 1010.1
20260510024508 72 81 1.0 2.0 0.00 0.00 0.00 54 1010.4
20260510024004 72 93 1.0 2.0 0.00 0.00 0.00 54 1010.1
20260510023500 72 92 1.0 1.0 0.00 0.00 0.00 53 1010.1
20260510022957 72 92 2.0 2.0 0.00 0.00 0.00 54 1010.0
20260510022457 72 89 2.0 2.0 0.00 0.00 0.00 54 1009.8
20260510021956 71 89 0.0 2.0 0.00 0.00 0.00 57 1009.9
20260510021454 71 86 1.0 1.0 0.00 0.00 0.00 59 1009.8
20260510020950 70 88 2.0 2.0 0.00 0.00 0.00 57 1009.8
20260510020445 70 76 2.0 2.0 0.00 0.00 0.00 58 1009.6
20260510015941 70 72 1.0 2.0 0.00 0.00 0.00 57 1009.5
20260510015437 70 68 2.0 3.0 0.00 0.00 0.00 57 1009.4
20260510014932 70 70 2.0 2.0 0.00 0.00 0.00 58 1009.3
20260510014430 70 68 1.0 2.0 0.00 0.00 0.00 59 1009.2
20260510013926 70 67 2.0 2.0 0.00 0.00 0.00 59 1009.1
20260510013421 70 71 2.0 2.0 0.00 0.00 0.00 61 1009.1
20260510012917 71 69 2.0 2.0 0.00 0.00 0.00 59 1009.1
20260510012412 71 86 2.0 2.0 0.00 0.00 0.00 58 1008.9
20260510011907 72 65 2.0 3.0 0.00 0.00 0.00 57 1009.1
20260510011402 71 58 2.0 3.0 0.00 0.00 0.00 57 1009.0
20260510010858 72 89 0.0 2.0 0.00 0.00 0.00 56 1009.0
20260510010356 73 60 0.0 1.0 0.00 0.00 0.00 55 1008.9
20260510005853 73 114 0.0 1.0 0.00 0.00 0.00 53 1009.1
20260510005349 74 55 0.0 1.0 0.00 0.00 0.00 53 1008.9
20260510004846 75 117 0.0 1.0 0.00 0.00 0.00 51 1008.9
20260510004344 76 116 0.0 2.0 0.00 0.00 0.00 50 1008.7
20260510003841 77 74 0.0 1.0 0.00 0.00 0.00 49 1008.6
20260510003337 78 205 0.0 1.0 0.00 0.00 0.00 48 1008.7
20260510002836 79 202 1.0 2.0 0.00 0.00 0.00 47 1008.8
20260510002334 79 189 1.0 2.0 0.00 0.00 0.00 47 1008.6
20260510001830 79 221 0.0 3.0 0.00 0.00 0.00 46 1008.6
20260510001329 79 207 2.0 4.0 0.00 0.00 0.00 45 1008.6
20260510000824 79 235 4.0 5.0 0.00 0.00 0.00 45 1008.5
20260510000322 79 209 2.0 4.0 0.00 0.00 0.00 44 1008.5
20260509235819 80 232 4.0 4.0 0.00 0.00 0.00 44 1008.5
20260509235315 80 218 2.0 4.0 0.00 0.00 0.00 44 1008.4
20260509234811 80 226 3.0 5.0 0.00 0.00 0.00 45 1008.5
20260509234308 80 218 3.0 4.0 0.00 0.00 0.00 45 1008.4
20260509233806 80 211 5.0 9.0 0.00 0.00 0.00 44 1008.4
20260509233303 80 226 3.0 7.0 0.00 0.00 0.00 44 1008.4
20260509232759 82 245 2.0 3.0 0.00 0.00 0.00 43 1008.3
20260509232257 82 25 0.0 3.0 0.00 0.00 0.00 40 1008.5
20260509231753 81 248 1.0 2.0 0.00 0.00 0.00 42 1008.4
20260509231250 80 218 1.0 4.0 0.00 0.00 0.00 43 1008.3
20260509230748 80 191 0.0 2.0 0.00 0.00 0.00 43 1008.4
20260509230244 80 239 3.0 5.0 0.00 0.00 0.00 42 1008.4
20260509225740 80 240 5.0 7.0 0.00 0.00 0.00 43 1008.2
20260509225236 80 284 2.0 5.0 0.00 0.00 0.00 42 1008.2
20260509224732 81 13 2.0 3.0 0.00 0.00 0.00 41 1008.4
20260509224229 80 234 1.0 3.0 0.00 0.00 0.00 41 1008.4
20260509223726 81 240 1.0 7.0 0.00 0.00 0.00 39 1008.2
20260509223223 84 246 3.0 3.0 0.00 0.00 0.00 39 1008.3
20260509222720 82 347 0.0 3.0 0.00 0.00 0.00 38 1008.4
20260509222215 82 222 3.0 5.0 0.00 0.00 0.00 40 1008.5
20260509221711 82 233 8.0 9.0 0.00 0.00 0.00 40 1008.4
20260509221207 83 323 2.0 5.0 0.00 0.00 0.00 39 1008.4
20260509220703 82 286 3.0 4.0 0.00 0.00 0.00 39 1008.4
20260509220200 82 260 3.0 6.0 0.00 0.00 0.00 40 1008.2
20260509215655 83 278 2.0 4.0 0.00 0.00 0.00 39 1008.3
20260509215152 82 273 2.0 4.0 0.00 0.00 0.00 40 1008.4
20260509214650 82 307 1.0 7.0 0.00 0.00 0.00 39 1008.4
20260509214146 81 301 4.0 9.0 0.00 0.00 0.00 39 1008.4
20260509213643 81 240 5.0 11.0 0.00 0.00 0.00 38 1008.4
20260509213133 82 355 5.0 6.0 0.00 0.00 0.00 39 1008.5
20260509212631 81 242 4.0 7.0 0.00 0.00 0.00 39 1008.6
20260509212128 81 215 6.0 11.0 0.00 0.00 0.00 39 1008.4
20260509211623 81 207 4.0 5.0 0.00 0.00 0.00 41 1008.7
20260509211120 81 229 4.0 10.0 0.00 0.00 0.00 41 1008.8
20260509210617 81 242 5.0 6.0 0.00 0.00 0.00 41 1008.9
20260509210115 81 234 6.0 7.0 0.00 0.00 0.00 41 1008.8
20260509205614 80 237 3.0 7.0 0.00 0.00 0.00 40 1008.9
20260509205103 80 265 4.0 6.0 0.00 0.00 0.00 41 1008.7
20260509204600 80 312 2.0 10.0 0.00 0.00 0.00 42 1009.0